Location: Althorst
(53.6379°N, 10.7715°E)
Time: 10:42:18
(UTC+00:00)

Cosmos 1733 Rocket - Pass Details

Date: 10 December 2019
Orbit: 604 x 627 km, 82.5° (Epoch: 24 January)

Event Time Altitude Azimuth Distance (km) Brightness Sun altitude
Rises 16:05:28 0° 349° (N) 2,890 6.3 -9.4°
Reaches altitude 10° 16:07:42 10° 352° (N) 1,984 5.5 -9.7°
Maximum altitude 16:12:05 72° 77° (ENE) 652 3.0 -10.2°
Drops below altitude 10° 16:16:29 10° 163° (SSE) 1,982 5.7 -10.8°
Sets 16:18:42 0° 165° (SSE) 2,887 6.6 -11.1°
